Regional Weather Roundup
Issued by NWS

Home | Current Version | Previous Version | Text Only | Print | Product List | Glossary Off
Versions: 1 2 3 4 5 6 7 8 9 10 11 12 13 14 15 16 17 18 19 20 21 22 23 24 25 26 27 28 29 30 31 32 33 34 35 36 37 38 39 40 41 42 43 44 45 46 47 48 49 50

000
ASUS43 KMPX 262301
RWRMN
WEATHER ROUNDUP FOR MINNESOTA
NATIONAL WEATHER SERVICE TWIN CITIES/CHANHASSEN MN
600 PM CDT SUN MAR 26 2017


NOTE: "FAIR" INDICATES FEW OR NO CLOUDS BELOW 12,000 FEET WITH NO
SIGNIFICANT WEATHER AND/OR OBSTRUCTIONS TO VISIBILITY. N/A MEANS
CURRENT SKY AND/OR WEATHER CONDITIONS ARE NOT AVAILABLE.

MNZ060>063-068>070-270000-
   Twin Cities Metro

CITY           SKY/WX    TMP DP  RH WIND       PRES   REMARKS
TWIN CITIES    CLOUDY    43  36  76 N7        29.91R
ST PAUL        CLOUDY    43  38  82 N6        29.92S
CRYSTAL        CLOUDY    42  35  76 N8        29.91R
BLAINE         CLOUDY    43  39  87 N8        29.91S
LAKEVILLE      CLOUDY    41  37  87 N3        29.90S
EDEN PRAIRIE   CLOUDY    44  36  73 NW8       29.90R
SOUTH ST PAUL  CLOUDY    43  38  82 N5        29.91R
LAKE ELMO      CLOUDY    43  37  81 N3        29.92R
$$
MNZ001>005-007-008-013>017-022>024-027-028-270000-
   Northwest Minnesota

CITY           SKY/WX    TMP DP  RH WIND       PRES   REMARKS
BEMIDJI        CLOUDY    46  33  61 E3        29.91F
HALLOCK        SUNNY     41  37  87 CALM      29.95S
ROSEAU         SUNNY     46  39  76 CALM      29.93F
WARROAD        SUNNY     45  37  76 SW5       29.94S
THIEF RVR FALL MOSUNNY  N/A N/A N/A CALM      29.94F
CROOKSTON      MOSUNNY   45  39  81 CALM      29.95S
FOSSTON        MOSUNNY   54  36  50 CALM      29.93S
DETROIT LAKES  MOSUNNY   45  36  70 NW5       29.93S
MOORHEAD       SUNNY     45  37  76 CALM      29.95S
PARK RAPIDS    CLOUDY    47  31  53 CALM      29.91S
MAHNOMEN       CLOUDY    46  37  69 W5        29.92S
$$
MNZ006-009>011-018-025>026-270000-
   North Central Minnesota

CITY           SKY/WX    TMP DP  RH WIND       PRES   REMARKS
BAUDETTE       CLOUDY    40  33  76 NW6       29.93S
FLAG ISLAND    SUNNY     37  32  81 SE8       29.93S
INTL FALLS     CLOUDY    44  31  60 NE6       29.92S
WASKISH        CLOUDY    45  34  65 CALM      29.93S
BIG FORK       CLOUDY    48  32  53 CALM      29.91S
LONGVILLE      CLOUDY    43  32  65 W3        29.93R
GRAND RAPIDS   CLOUDY    44  32  62 CALM      29.93S
CRANE LAKE     CLOUDY    45  30  57 N5        29.93S
ORR            CLOUDY    46  28  49 CALM      29.89R
COOK           CLOUDY    45  30  57 CALM      29.91R
WALKER         FAIR      43  32  64 CALM      29.92S
$$
MNZ012-019>021-037-270000-
   Northeast Minnesota

CITY           SKY/WX    TMP DP  RH WIND       PRES   REMARKS
DULUTH         FOG       33  33 100 E3        29.92R VSB 1/8
ELY            MOSUNNY   39  30  70 CALM      29.91S
HIBBING        CLOUDY    42  32  67 CALM      29.91R
EVELETH        CLOUDY    41  30  66 CALM      29.92S
DULUTH HARBOR  CLOUDY    34  34 100 CALM      29.96S
TWO HARBORS    CLOUDY    37  32  81 CALM      29.91F
SILVER BAY     CLOUDY    36  34  93 CALM      29.91S
GRAND MARAIS     N/A     35  34  96 CALM      29.94S
G MARAIS ARPRT DRIZZLE   32  28  86 N5        29.90S WCI  27
$$
MNZ029>031-032-039>041-046>048-054>057-064-270000-
   West Central Minnesota

CITY           SKY/WX    TMP DP  RH WIND       PRES   REMARKS
FERGUS FALLS   CLOUDY    45  36  70 NW8       29.97S
WHEATON        CLOUDY    46  36  66 W3        29.96S
MORRIS         CLOUDY    46  37  71 NW8       29.93S
ALEXANDRIA     CLOUDY    46  35  65 N3        29.93S
ELBOW LAKE     CLOUDY    44  37  78 NW7       29.94S
WADENA         CLOUDY    45  34  65 NW5       29.92S
GLENWOOD       CLOUDY    46  36  66 NW5       29.93S
APPLETON       CLOUDY    48  37  66 CALM      29.93S
BENSON         CLOUDY    50  34  53 NW7       29.94S
ORTONVILLE     CLOUDY    45  37  76 N7        29.94S
MADISON        CLOUDY    48  39  71 NW6       29.94S
WILLMAR        CLOUDY    46  37  71 NE5       29.94S
$$
MNZ033>034-036-042>043-049>051-058-059-270000-
   Central Minnesota

CITY           SKY/WX    TMP DP  RH WIND       PRES   REMARKS
ST CLOUD       CLOUDY    40  36  86 N3        29.93S
SAUK CENTRE    CLOUDY    44  35  68 N3        29.93R
PAYNESVILLE      N/A     42  37  80 NE3       29.93S
AITKIN         CLOUDY    45  32  61 CALM      29.91S
PINE RIVER     CLOUDY    45  34  65 N3        29.96S
BRAINERD       CLOUDY    44  33  65 N3        29.93R
STAPLES        CLOUDY    46  34  61 CALM      29.92S
LONG PRAIRIE   CLOUDY    45  34  65 W5        29.93R
LITTLE FALLS   CLOUDY    43  32  65 CALM      29.93S
LITCHFIELD     CLOUDY    43  37  81 N6        29.94R
BUFFALO        DRIZZLE   39  37  92 N6        29.94S
MAPLE LAKE     DRIZZLE   40  39  96 N3        29.94R
HUTCHINSON     CLOUDY    41  38  89 NW9       29.94S
$$
MNZ037-044-045-052-053-270000-
   East Central Minnesota

CITY           SKY/WX    TMP DP  RH WIND       PRES   REMARKS
PRINCETON      RAIN      39  37  93 NW5       29.94R
MORA           RAIN      36  34  93 CALM      29.95R
CAMBRIDGE      DRIZZLE   39  37  93 N5        29.92R
RUSH CITY      RAIN      38  36  92 N7        29.93R
MOOSE LAKE     CLOUDY    36  34  93 CALM      29.92R
CLOQUET        FOG       34  32  93 E3        29.93R VSB 1/4
MCGREGOR       CLOUDY    41  34  75 N5        29.93R
$$
MNZ071>073-080-081-089-090-097-098-270000-
   Southwest Minnesota

CITY           SKY/WX    TMP DP  RH WIND       PRES   REMARKS
MONTEVIDEO     CLOUDY    46  39  76 N7        29.95S
GRANITE FALLS  CLOUDY    46  38  74 NW5       29.95S
CANBY          CLOUDY    44  39  82 CALM      29.95S
MARSHALL       CLOUDY    43  38  82 NW8       29.94R
REDWOOD FALLS  CLOUDY    46  36  68 NW6       29.93R
OLIVIA         CLOUDY    45  36  70 N6        29.93R
PIPESTONE      CLOUDY    43  36  75 N7        29.91S
WINDOM         MOSUNNY   43  37  81 NW10      29.91F
WORTHINGTON    CLOUDY    41  38  89 N12       29.92R
JACKSON        CLOUDY    43  37  81 VRB7      29.91S
TRACY          CLOUDY    43  39  86 N6        29.93R
SLAYTON        CLOUDY    40  37  89 N9        29.92F
$$
MNZ065>067-074>077-082>085-091>093-270000-
   South Central Minnesota

CITY           SKY/WX    TMP DP  RH WIND       PRES   REMARKS
MANKATO        CLOUDY    41  38  89 N8        29.92R
NEW ULM        CLOUDY    41  36  81 CALM      29.92S
ST JAMES       CLOUDY    43  37  81 CALM      29.94R
FAIRMONT       CLOUDY    41  38  89 N10       29.92S
GLENCOE        CLOUDY    41  39  95 N7        29.92S
FARIBAULT      CLOUDY    43  39  87 NW6       29.91S
OWATONNA       CLOUDY    43  37  81 NW6       29.90S
WASECA         CLOUDY    41  37  87 NW7       29.91S FOG
ALBERT LEA     CLOUDY    41  41 100 N5        29.90R FOG
$$
MNZ078>079-086>088-094>096-270000-
   Southeast Minnesota

CITY           SKY/WX    TMP DP  RH WIND       PRES   REMARKS
ROCHESTER      LGT RAIN  39  39 100 NW9       29.90R FOG
RED WING       CLOUDY    43  39  87 CALM      29.90R FOG
STANTON        CLOUDY    42  39  88 N3        29.90R
DODGE CENTER   DRIZZLE   39  39 100 N7        29.89S
WINONA         CLOUDY    41  37  87 NW9       29.90R
AUSTIN         CLOUDY    41  39  93 N6        29.88F FOG
PRESTON        CLOUDY    40  37  92 N8        29.89R
$$
ABBREVIATIONS USED IN REMARKS
   TC - TEMPERATURES IN CELSIUS
  WCI - WIND CHILL INDEX
   HX - HEAT INDEX
  VSB - VISIBILITY
$$



USA.gov is the U.S. government's official web portal to all federal, state and local government web resources and services.